Starlink 11405

operational
NORAD ID: 63008 Int'l Des: 2025-032 Owner: SPXS Country: US Constellation: starlink
LEOCIRCULAR

About Starlink 11405

Description loading...

Live Position

Loading 3D Globe...

Upcoming Passes

Altitude History

Altitude vs Time

uPlot chart will show altitude changes over time

Two-Line Element Set

1 63008U 25032D 25305.14120672 .00182566 00000-0 13912-2 0 9993
2 63008 42.9996 250.4415 0001352 267.7548 92.3165 15.70909980 41840
Epoch: Nov 1, 2025 • Age: 18 hours

Current Status

Altitude 367.2 km
Velocity 7.69 km/s
Sub-Earth Point -41.31°S, 174.21°E
Launch Date Feb 15, 2025
Age 0.7 years
Type internet

Technical Details

Classification Payload
Mass 960.00 kg
Dry Mass 910.00 kg
Total Mass 960.00 kg
Length 0.30 m
Diameter 4.10 m
Span 29.00 m
Shape Box + pan
Manufacturer SPXS
Bus Type Starlink V2MD
Phase Status In Orbit
Owner/State SPXS/US

Large Constellations

Loading constellations...